Retour au catalogue

CZ-2C DEB

ActifSSO
NORAD 39225·DEBRIS·🇨🇳 China

Lancé Jul 15, 2013 depuis Jiuquan Satellite Launch Center

Loading…

Prochains Passages (prochaines 24 heures)

TLE

FraisSource: Space-Track

Époque: Sep 14, 2026, 12:16 UTC

1 39225U 13035F   26257.51162709  .00001278  00000-0  40706-3 0  9994
2 39225  98.2410 269.0777 0158166  96.2612 265.6616 14.34499068679842

Suivez CZ-2C DEB en temps réel avec AllMySat

Download on the App Store